FW9036 Weather Reports


time (UTC)temp
F
wind
direction
speed
knots
gust
knots
rain 1hr
in
rain 24hr
in
rain mn
in
humidity
%
barometer
mb
20220930163650 69 334 3.5 7.8 0.00 0.00 0.00 71 1009.3
20220930163149 69 307 4.3 7.8 0.00 0.00 0.00 72 1009.1
20220930162647 69 304 4.3 11.3 0.00 0.00 0.00 72 1009.1
20220930162146 69 294 4.3 9.6 0.00 0.00 0.00 71 1009.1
20220930161645 69 305 2.6 8.7 0.00 0.00 0.00 72 1009.0
20220930161144 69 10 0.0 10.4 0.00 0.00 0.00 71 1009.0
20220930160644 69 277 11.3 11.3 0.00 0.00 0.00 71 1009.3
20220930160143 69 321 4.3 8.7 0.00 0.00 0.00 72 1009.1
20220930155642 69 326 2.6 7.8 0.00 0.00 0.00 72 1009.1
20220930155141 68 331 2.6 8.7 0.00 0.00 0.00 72 1009.1
20220930154641 69 345 3.5 11.3 0.00 0.00 0.00 72 1009.0
20220930154140 69 26 3.5 7.8 0.00 0.00 0.00 72 1009.0
20220930153640 69 303 6.1 7.8 0.00 0.00 0.00 72 1008.8
20220930153141 69 271 8.7 8.7 0.00 0.00 0.00 72 1009.1
20220930152640 68 29 4.3 7.8 0.00 0.00 0.00 73 1009.1
20220930152139 68 288 5.2 6.1 0.00 0.00 0.00 73 1008.8
20220930151638 68 308 4.3 16.5 0.00 0.00 0.00 74 1009.1
20220930151137 68 18 4.3 9.6 0.00 0.00 0.00 74 1008.8
20220930150636 68 281 4.3 8.7 0.00 0.00 0.00 74 1008.8
20220930150136 68 321 3.5 8.7 0.00 0.00 0.00 74 1008.7
20220930145635 68 311 4.3 8.7 0.00 0.00 0.00 74 1008.7
20220930145134 68 303 4.3 10.4 0.00 0.00 0.00 75 1008.6
20220930144634 67 32 2.6 5.2 0.00 0.00 0.00 75 1008.8
20220930144133 67 327 1.7 5.2 0.00 0.00 0.00 74 1008.9
20220930143633 67 332 4.3 10.4 0.00 0.00 0.00 76 1008.9
20220930143131 66 303 7.0 11.3 0.00 0.00 0.00 75 1008.7
20220930142630 67 319 5.2 8.7 0.00 0.00 0.00 75 1008.6
20220930142129 67 342 1.7 8.7 0.00 0.00 0.00 76 1008.6
20220930141628 67 302 2.6 5.2 0.00 0.00 0.00 76 1008.6
20220930141127 66 303 6.1 7.0 0.00 0.00 0.00 76 1008.4
20220930140627 66 10 2.6 8.7 0.00 0.00 0.00 77 1008.4
20220930140127 66 330 3.5 4.3 0.00 0.00 0.00 77 1008.4
20220930135626 66 297 3.5 9.6 0.00 0.00 0.00 77 1008.2
20220930135126 66 343 4.3 7.8 0.00 0.00 0.00 77 1008.5
20220930134625 65 278 2.6 9.6 0.00 0.00 0.00 77 1008.3
20220930134125 66 320 2.6 9.6 0.00 0.00 0.00 77 1008.7
20220930133625 65 348 2.6 6.1 0.00 0.00 0.00 78 1008.6
20220930133126 65 299 2.6 10.4 0.00 0.00 0.00 78 1008.3
20220930132624 65 25 2.6 7.0 0.00 0.00 0.00 77 1008.5
20220930132123 65 341 2.6 8.7 0.00 0.00 0.00 78 1008.2
20220930131622 65 292 1.7 9.6 0.00 0.00 0.00 78 1008.3
20220930131121 65 338 2.6 7.0 0.00 0.00 0.00 78 1008.1
20220930130621 65 324 2.6 5.2 0.00 0.00 0.00 78 1008.0
20220930130120 65 0 0.9 7.8 0.00 0.00 0.00 78 1008.0
20220930125620 65 315 2.6 6.1 0.00 0.00 0.00 78 1008.0
20220930125120 65 11 2.6 5.2 0.00 0.00 0.00 78 1007.9
20220930124618 65 305 4.3 9.6 0.00 0.00 0.00 78 1008.0
20220930124117 65 336 0.0 8.7 0.00 0.00 0.00 78 1007.9
20220930123618 65 328 6.1 8.7 0.00 0.00 0.00 78 1007.9
20220930123117 65 283 4.3 7.0 0.00 0.00 0.00 78 1007.8
20220930122616 64 314 4.3 6.1 0.00 0.00 0.00 79 1007.7
20220930122115 65 302 2.6 4.3 0.00 0.00 0.00 79 1007.9
20220930121615 64 302 5.2 7.0 0.00 0.00 0.00 79 1008.0
20220930121115 64 346 0.0 9.6 0.00 0.00 0.00 79 1007.7
20220930120613 64 11 4.3 8.7 0.00 0.00 0.00 79 1007.7
20220930120111 64 301 1.7 7.8 0.00 0.00 0.00 79 1007.8
20220930115610 64 283 3.5 6.1 0.00 0.00 0.00 79 1007.8
20220930115108 64 300 5.2 5.2 0.00 0.00 0.00 79 1007.5
20220930114607 64 314 3.5 5.2 0.00 0.00 0.00 79 1007.5
20220930114106 64 352 1.7 7.0 0.00 0.00 0.00 79 1007.5
20220930113605 64 294 5.2 7.0 0.00 0.00 0.00 80 1007.6
20220930113102 64 0 1.7 5.2 0.00 0.00 0.00 80 1007.4
20220930112601 64 57 5.2 6.1 0.00 0.00 0.00 80 1007.4
20220930112100 64 312 5.2 7.0 0.00 0.00 0.00 79 1007.3
20220930111559 64 328 4.3 6.1 0.00 0.00 0.00 80 1007.4
20220930111058 65 324 2.6 8.7 0.00 0.00 0.00 80 1007.2
20220930110556 64 0 1.7 6.1 0.00 0.00 0.00 80 1007.2
20220930110056 65 320 1.7 7.8 0.00 0.00 0.00 80 1007.3
20220930105554 65 309 2.6 13.0 0.00 0.00 0.00 80 1007.2
20220930105052 65 327 3.5 5.2 0.00 0.00 0.00 80 1007.1
20220930104550 65 41 3.5 11.3 0.00 0.00 0.00 80 1006.8
20220930104050 65 0 1.7 5.2 0.00 0.00 0.00 80 1006.9
20220930103551 65 15 1.7 9.6 0.00 0.00 0.00 81 1006.9
20220930103049 65 293 5.2 5.2 0.00 0.00 0.00 81 1006.8
20220930102549 65 309 3.5 6.1 0.00 0.00 0.00 81 1006.7
20220930102047 64 299 5.2 9.6 0.00 0.00 0.00 81 1006.6
20220930101548 65 310 2.6 8.7 0.00 0.00 0.00 81 1006.8
20220930101046 64 337 2.6 5.2 0.00 0.00 0.00 81 1006.4
20220930100544 64 330 3.5 10.4 0.00 0.00 0.00 81 1006.6
20220930100042 65 308 5.2 9.6 0.00 0.00 0.00 81 1006.3
20220930095540 65 326 3.5 9.6 0.00 0.00 0.00 81 1006.5
20220930095039 64 307 2.6 8.7 0.00 0.00 0.00 81 1006.3
20220930094538 64 2 2.6 11.3 0.00 0.00 0.00 81 1006.5
20220930094037 64 340 2.6 7.0 0.00 0.00 0.00 81 1006.4
20220930093536 64 327 5.2 7.8 0.00 0.00 0.00 81 1006.4
20220930093036 64 330 3.5 9.6 0.00 0.00 0.00 81 1006.2
20220930092536 64 287 1.7 10.4 0.00 0.00 0.00 81 1006.2
20220930092035 64 0 2.6 7.0 0.00 0.00 0.00 82 1006.4
20220930091533 64 322 2.6 6.1 0.00 0.00 0.00 82 1006.4
20220930091033 64 317 3.5 5.2 0.00 0.00 0.00 82 1006.3
20220930090532 64 28 4.3 7.0 0.00 0.00 0.00 82 1006.3
20220930090030 64 338 5.2 7.8 0.00 0.00 0.00 82 1006.5
20220930085528 65 317 4.3 8.7 0.00 0.00 0.00 82 1006.5
20220930085026 64 336 1.7 6.1 0.00 0.00 0.00 82 1006.4
20220930084524 64 2 2.6 8.7 0.00 0.00 0.00 82 1006.5
20220930084024 64 5 0.0 5.2 0.00 0.00 0.00 83 1006.3
20220930083524 64 296 4.3 7.8 0.00 0.00 0.00 83 1006.2
20220930083024 64 303 4.3 7.8 0.00 0.00 0.00 83 1006.3
20220930082523 64 355 0.9 9.6 0.00 0.00 0.00 83 1006.4
20220930082021 64 357 1.7 7.8 0.00 0.00 0.00 83 1006.4
20220930081521 64 304 2.6 5.2 0.00 0.00 0.00 83 1006.3
20220930081019 64 330 2.6 6.1 0.00 0.00 0.00 83 1006.2
20220930080519 64 332 1.7 9.6 0.00 0.00 0.00 83 1006.1
20220930080018 64 306 4.3 10.4 0.00 0.00 0.00 83 1006.3
20220930075516 64 6 2.6 7.8 0.00 0.00 0.00 83 1005.9
20220930075014 64 53 4.3 7.0 0.00 0.00 0.00 83 1006.1
20220930074512 64 312 4.3 7.8 0.00 0.00 0.00 83 1005.8
20220930074011 64 0 0.9 10.4 0.00 0.00 0.00 83 1006.0
20220930073509 64 293 6.1 9.6 0.00 0.00 0.00 84 1006.2
20220930073007 64 315 7.0 7.8 0.00 0.00 0.00 84 1006.3
20220930072506 64 270 6.1 9.6 0.00 0.00 0.00 84 1006.4
20220930072004 64 31 2.6 8.7 0.00 0.00 0.00 84 1006.6
20220930071502 64 336 4.3 12.2 0.00 0.00 0.00 83 1006.7
20220930071001 64 309 2.6 6.1 0.00 0.00 0.00 84 1006.7
20220930070500 64 326 3.5 12.2 0.00 0.00 0.00 84 1006.6
20220930065959 64 353 2.6 5.2 0.00 0.00 0.00 84 1006.7
20220930065459 64 323 3.5 10.4 0.00 0.00 0.00 84 1006.6
20220930064959 64 335 5.2 9.6 0.00 0.00 0.00 84 1006.6
20220930064457 64 326 6.1 12.2 0.00 0.00 0.00 84 1006.5
20220930063955 64 290 4.3 6.1 0.00 0.00 0.00 84 1006.6
20220930063455 64 307 3.5 8.7 0.00 0.00 0.00 84 1006.8
20220930062953 64 26 4.3 7.0 0.00 0.00 0.00 84 1006.8
20220930062452 64 38 4.3 6.1 0.00 0.00 0.00 84 1006.7
20220930061952 64 301 5.2 7.0 0.00 0.00 0.00 84 1006.9
20220930061450 64 29 5.2 7.8 0.00 0.00 0.00 84 1006.7
20220930060950 64 34 4.3 13.0 0.00 0.00 0.00 84 1007.0
20220930060449 64 11 4.3 11.3 0.00 0.00 0.00 84 1006.9
20220930055948 64 299 5.2 8.7 0.00 0.00 0.00 84 1006.9
20220930055446 64 4 5.2 12.2 0.00 0.00 0.00 85 1006.9
20220930054946 64 48 5.2 7.8 0.00 0.00 0.00 85 1006.8
20220930054445 64 38 2.6 9.6 0.00 0.00 0.00 85 1007.0
20220930053943 64 42 4.3 12.2 0.00 0.00 0.00 85 1007.1
20220930053443 64 296 2.6 11.3 0.00 0.00 0.00 85 1006.9
20220930052941 64 2 2.6 9.6 0.00 0.00 0.00 84 1006.9
20220930052441 64 320 2.6 9.6 0.00 0.00 0.00 84 1007.0
20220930051940 64 36 5.2 6.1 0.00 0.00 0.00 84 1007.2
20220930051438 64 42 10.4 11.3 0.00 0.00 0.00 84 1007.0
20220930050935 64 331 2.6 8.7 0.00 0.00 0.00 84 1007.2
20220930050433 64 27 3.5 13.0 0.00 0.00 0.00 84 1006.9
20220930045932 64 315 5.2 9.6 0.00 0.00 0.00 84 1007.2
20220930045432 64 22 5.2 11.3 0.00 0.00 0.00 84 1007.4
20220930044928 64 16 2.6 13.9 0.00 0.00 0.00 84 1007.0
20220930044427 64 335 3.5 12.2 0.00 0.00 0.00 84 1007.2
20220930043926 64 321 3.5 7.8 0.00 0.00 0.00 84 1007.5
20220930043424 64 355 0.0 9.6 0.00 0.00 0.00 84 1007.3
20220930042925 64 332 7.8 11.3 0.00 0.00 0.00 84 1007.8
20220930042424 64 27 6.1 11.3 0.00 0.00 0.00 84 1007.6
20220930041922 64 23 4.3 7.8 0.00 0.00 0.00 84 1007.5
20220930041422 64 318 6.1 11.3 0.00 0.00 0.00 84 1007.7
20220930040922 64 322 4.3 13.9 0.00 0.00 0.00 84 1007.6
20220930040421 64 337 2.6 9.6 0.00 0.00 0.00 83 1008.0
20220930035919 64 17 2.6 9.6 0.00 0.51 0.51 82 1007.9
20220930035418 64 341 5.2 12.2 0.00 0.51 0.51 82 1007.7
20220930034918 64 293 4.3 13.9 0.00 0.51 0.51 82 1007.8
20220930034417 64 294 9.6 9.6 0.00 0.51 0.51 82 1007.9
20220930033915 64 2 2.6 14.8 0.00 0.51 0.51 82 1007.8
20220930033413 64 305 1.7 13.0 0.00 0.51 0.51 82 1008.1
20220930032913 64 20 4.3 11.3 0.00 0.51 0.51 82 1008.1
20220930032412 64 315 4.3 7.8 0.00 0.51 0.51 82 1008.2
20220930031910 64 4 3.5 13.0 0.00 0.51 0.51 82 1008.2
20220930031410 64 38 6.1 11.3 0.00 0.51 0.51 82 1008.1
20220930030908 64 4 2.6 8.7 0.00 0.51 0.51 82 1008.2
20220930030407 64 297 4.3 9.6 0.00 0.51 0.51 82 1008.2
20220930025905 64 0 2.6 9.6 0.00 0.51 0.51 82 1008.2
20220930025403 64 348 3.5 6.1 0.00 0.51 0.51 82 1008.5
20220930024901 64 353 6.1 10.4 0.00 0.51 0.51 81 1008.4
20220930024400 64 310 3.5 7.0 0.00 0.51 0.51 82 1008.4
20220930023858 64 61 4.3 14.8 0.00 0.51 0.51 81 1008.0
20220930023358 64 15 0.9 12.2 0.00 0.51 0.51 82 1008.2
20220930022856 64 335 13.0 13.0 0.00 0.51 0.51 82 1008.2
20220930022354 64 337 8.7 8.7 0.00 0.51 0.51 82 1007.9
20220930021852 64 315 1.7 9.6 0.00 0.51 0.51 82 1008.2
20220930021351 64 309 7.8 9.6 0.00 0.51 0.51 82 1008.1
20220930020851 64 32 1.7 7.8 0.00 0.51 0.51 82 1008.1
20220930020351 64 315 4.3 8.7 0.00 0.51 0.51 82 1008.0
20220930015849 64 24 3.5 10.4 0.00 0.51 0.51 82 1008.1
20220930015348 64 358 2.6 12.2 0.00 0.51 0.51 82 1008.0
20220930014847 63 29 7.0 7.8 0.00 0.51 0.51 82 1008.1
20220930014347 63 65 1.7 10.4 0.00 0.51 0.51 83 1008.0
20220930013847 63 3 2.6 6.1 0.00 0.51 0.51 83 1008.0
20220930013345 63 3 2.6 12.2 0.00 0.51 0.51 83 1007.9
20220930012845 63 13 7.8 13.9 0.00 0.51 0.51 83 1007.9
20220930012344 63 347 7.8 9.6 0.00 0.51 0.51 83 1008.1
20220930011842 63 337 8.7 12.2 0.00 0.51 0.51 83 1007.9
20220930011341 63 356 3.5 13.0 0.00 0.51 0.51 83 1007.9
20220930010841 63 285 2.6 8.7 0.00 0.51 0.51 83 1007.7
20220930010341 63 31 4.3 13.0 0.00 0.51 0.51 84 1007.7
20220930005839 63 296 4.3 9.6 0.00 0.51 0.51 84 1007.9
20220930005339 63 18 5.2 10.4 0.00 0.51 0.51 84 1007.9
20220930004838 63 57 2.6 10.4 0.00 0.51 0.51 84 1008.1
20220930004337 63 299 5.2 7.8 0.00 0.51 0.51 84 1008.0
20220930003835 63 348 2.6 8.7 0.00 0.51 0.51 84 1008.0
20220930003335 63 42 5.2 13.0 0.00 0.51 0.51 84 1008.0
20220930002834 63 51 5.2 10.4 0.00 0.51 0.51 84 1008.0
20220930002334 63 342 6.1 13.9 0.00 0.51 0.51 84 1007.8
20220930001834 63 47 5.2 13.0 0.00 0.51 0.51 84 1007.9
20220930001334 62 311 13.0 16.5 0.00 0.51 0.51 84 1008.0
20220930000832 62 319 7.8 12.2 0.00 0.51 0.51 85 1007.9
20220930000331 62 87 0.0 9.6 0.00 0.51 0.51 85 1007.6
20220929235831 62 59 9.6 13.0 0.00 0.51 0.51 85 1007.5
20220929235329 62 332 5.2 13.0 0.00 0.51 0.51 85 1007.7
20220929234830 62 4 1.7 11.3 0.00 0.51 0.51 86 1007.8
20220929234328 62 276 2.6 7.8 0.00 0.51 0.51 86 1007.7
20220929233827 62 261 4.3 13.9 0.00 0.51 0.51 86 1007.8
20220929233327 62 25 6.1 14.8 0.00 0.51 0.51 86 1007.5
20220929232828 62 21 3.5 16.5 0.00 0.51 0.51 86 1007.7
20220929232326 62 348 2.6 16.5 0.00 0.51 0.51 86 1007.6
20220929231825 62 315 6.1 8.7 0.00 0.51 0.51 86 1007.6
20220929231324 62 66 2.6 14.8 0.00 0.51 0.51 86 1008.1
20220929230824 62 14 1.7 13.9 0.00 0.51 0.51 86 1007.8
20220929230322 62 10 3.5 10.4 0.00 0.51 0.51 87 1008.0
20220929225823 62 339 11.3 18.2 0.00 0.51 0.51 86 1007.6
20220929225322 62 75 0.9 11.3 0.00 0.51 0.51 86 1007.7
20220929224821 62 312 3.5 13.0 0.00 0.51 0.51 86 1007.6
20220929224321 62 343 2.6 11.3 0.00 0.51 0.51 86 1007.6
20220929223820 62 21 2.6 6.1 0.00 0.51 0.51 86 1007.6
20220929223319 62 354 0.0 9.6 0.00 0.51 0.51 86 1007.9
20220929222818 62 333 8.7 13.9 0.00 0.51 0.51 86 1007.9
20220929222316 62 36 7.0 10.4 0.00 0.51 0.51 86 1007.8
20220929221815 62 42 5.2 7.8 0.00 0.51 0.51 87 1007.9
20220929221314 62 45 1.7 9.6 0.00 0.51 0.51 87 1008.0
20220929220813 62 48 7.0 9.6 0.00 0.51 0.51 86 1007.8
20220929220313 62 314 4.3 11.3 0.00 0.51 0.51 86 1007.7
20220929215810 62 37 6.1 10.4 0.00 0.51 0.51 87 1007.9
20220929215309 62 57 4.3 9.6 0.00 0.51 0.51 87 1007.9
20220929214809 61 58 7.0 8.7 0.00 0.51 0.51 87 1008.1
20220929214310 61 37 5.2 9.6 0.00 0.51 0.51 88 1008.0
20220929213808 61 270 0.9 8.7 0.00 0.51 0.51 88 1007.9
20220929213306 61 348 1.7 12.2 0.00 0.51 0.51 89 1007.8
20220929212804 61 322 1.7 7.0 0.00 0.51 0.51 90 1007.7
20220929212304 61 314 6.1 6.1 0.00 0.51 0.51 91 1007.6
20220929211803 60 12 5.2 7.0 0.00 0.51 0.51 91 1007.8
20220929211301 60 342 4.3 7.8 0.00 0.51 0.51 91 1007.5
20220929210802 60 30 0.0 12.2 0.00 0.51 0.51 91 1007.4
20220929210300 60 2 3.5 7.8 0.00 0.51 0.51 91 1007.9
20220929205800 60 30 4.3 7.8 0.00 0.51 0.51 91 1007.3
20220929205258 60 331 1.7 8.7 0.00 0.51 0.51 92 1007.5
20220929204757 60 65 4.3 8.7 0.00 0.51 0.51 92 1007.2
20220929204255 60 3 6.1 10.4 0.00 0.51 0.51 93 1007.2
20220929203754 60 13 4.3 13.0 0.00 0.51 0.51 94 1007.0
20220929203252 59 321 2.6 8.7 0.00 0.51 0.51 94 1006.9
20220929202753 59 329 2.6 9.6 0.00 0.51 0.51 95 1007.1
20220929202253 59 356 1.7 9.6 0.00 0.51 0.51 95 1007.3
20220929201751 60 317 3.5 4.3 0.00 0.51 0.51 95 1007.1
20220929201251 60 52 2.6 6.1 0.02 0.51 0.51 95 1007.1
20220929200749 60 358 3.5 7.8 0.02 0.51 0.51 95 1006.8
20220929200249 61 352 0.0 6.1 0.00 0.50 0.50 95 1006.6
20220929195749 61 56 5.2 6.1 0.02 0.50 0.50 95 1006.7
20220929195249 61 327 1.7 7.8 0.04 0.50 0.50 95 1006.7
20220929194749 61 313 4.3 11.3 0.04 0.50 0.50 95 1006.5
20220929194249 61 42 2.6 8.7 0.04 0.49 0.49 94 1006.8
20220929193747 62 46 3.5 7.8 0.02 0.49 0.49 94 1007.0
20220929193247 62 339 7.0 7.8 0.02 0.48 0.48 94 1006.8
20220929192745 62 357 2.6 13.0 0.04 0.48 0.48 94 1007.0
20220929192244 62 341 0.0 12.2 0.04 0.48 0.48 94 1006.9
20220929191744 62 18 4.3 7.8 0.04 0.48 0.48 94 1006.8
20220929191243 63 45 2.6 9.6 0.04 0.47 0.47 95 1006.8
20220929190744 63 52 2.6 6.1 0.07 0.47 0.47 95 1007.1
20220929190242 63 58 4.3 8.7 0.04 0.46 0.46 95 1006.9
20220929185742 63 351 5.2 9.6 0.07 0.46 0.46 95 1007.1
20220929185240 63 14 2.6 8.7 0.07 0.45 0.45 95 1007.2
20220929184738 64 353 4.3 9.6 0.04 0.44 0.44 95 1007.0
20220929184237 64 352 7.8 10.4 0.07 0.44 0.44 94 1007.0
20220929183735 64 39 3.5 7.8 0.07 0.43 0.43 94 1007.5
20220929183234 65 357 4.3 7.0 0.04 0.42 0.42 95 1007.3
20220929182734 65 296 2.6 6.1 0.04 0.42 0.42 95 1007.6
20220929182233 65 351 4.3 8.7 0.04 0.42 0.42 94 1007.5
20220929181734 65 26 1.7 8.7 0.07 0.41 0.41 94 1007.4
20220929181233 66 58 4.3 7.0 0.07 0.40 0.40 95 1007.5
20220929180733 66 20 2.6 12.2 0.07 0.40 0.40 95 1007.7
20220929180231 66 75 3.5 9.6 0.09 0.39 0.39 96 1007.6
20220929175730 66 75 4.3 7.8 0.07 0.39 0.39 95 1007.7
20220929175230 66 15 5.2 9.6 0.04 0.38 0.38 94 1007.7
20220929174729 66 38 1.7 7.0 0.02 0.37 0.37 94 1007.7
20220929174227 66 45 3.5 7.0 0.04 0.37 0.37 94 1007.6
20220929173727 66 35 6.1 8.7 0.04 0.37 0.37 94 1007.3
20220929173225 66 344 2.6 6.1 0.07 0.36 0.36 94 1007.6
20220929172725 66 70 3.5 11.3 0.09 0.36 0.36 94 1007.7
20220929172223 66 52 4.3 9.6 0.09 0.35 0.35 94 1007.6
20220929171721 67 85 1.7 7.8 0.07 0.34 0.34 93 1007.7
20220929171221 67 46 3.5 6.1 0.04 0.33 0.33 93 1007.9
20220929170721 67 297 2.6 7.0 0.04 0.33 0.33 93 1007.7
20220929170220 67 17 1.7 9.6 0.02 0.33 0.33 93 1007.9
20220929165720 67 42 8.7 13.0 0.02 0.32 0.32 92 1008.0
20220929165218 67 15 4.3 17.4 0.04 0.32 0.32 92 1007.8
20220929164718 67 54 3.5 12.2 0.04 0.32 0.32 92 1007.6
20220929164216 67 78 4.3 5.2 0.02 0.31 0.31 92 1007.7